Back to catalog

AURA

AliveScienceSSO
NORAD 28376·PAYLOAD·🇺🇸 United States

Launched Jul 15, 2004 from Vandenberg Space Force Base

Loading…

Next Passes (next 24 hours)

TLE

FreshSource: Space-Track

Epoch: Sep 14, 2026, 14:40 UTC

1 28376U 04026A   26257.61155077  .00000564  00000-0  12371-3 0  9994
2 28376  98.3513 214.8510 0001507  69.7282 290.4080 14.61440141179270

Track AURA in real time with AllMySat

Download on the App Store